EW7630 Weather Reports


time (UTC)temp
F
wind
direction
speed
knots
gust
knots
rain 1hr
in
rain 24hr
in
rain mn
in
humidity
%
barometer
mb
20260504205022 76 166 6.1 7.8 0.00 2.75 2.71 58 1001.7
20260504204018 75 173 5.2 10.4 0.00 2.75 2.71 61 1002.0
20260504203021 0 158 4.3 4.3 0.00 2.75 2.71 1002.0
20260504202055 74 174 4.3 6.1 0.00 2.75 2.71 64 1002.1
20260504201050 74 169 4.3 7.0 0.00 2.75 2.71 65 1002.3
20260504200027 73 165 3.5 6.1 0.00 2.75 2.71 65 1002.4
20260504195023 73 163 5.2 9.6 0.00 2.75 2.71 64 1002.4
20260504194019 72 268 2.6 5.2 0.00 2.75 2.71 69 1002.3
20260504193058 69 151 2.6 3.5 0.00 2.75 2.71 72 1001.6
20260504192031 68 167 2.6 4.3 0.00 2.75 2.71 74 1001.7
20260504191026 67 193 4.3 7.0 0.00 2.75 2.71 73 1002.3
20260504190023 68 177 1.7 5.2 0.00 2.75 2.71 73 1003.2
20260504185023 68 166 2.6 4.3 0.00 2.75 2.71 72 1003.5
20260504184040 68 174 1.7 5.2 0.00 2.75 2.71 75 1003.5
20260504183028 67 176 3.5 5.2 2.69 2.75 2.71 75 1003.3
20260504182024 66 163 3.5 7.0 2.69 2.75 2.71 77 1003.6
20260504181019 65 156 2.6 4.3 2.69 2.75 2.71 79 1003.7
20260504180043 64 170 1.7 3.5 2.70 2.75 2.71 82 1003.7
20260504175024 63 177 1.7 4.3 2.71 2.75 2.71 81 1003.4
20260504174025 63 230 1.7 3.5 2.71 2.75 2.71 82 1004.0
20260504173044 64 184 1.7 4.3 0.02 0.06 0.02 80 1003.4
20260504172018 64 173 2.6 4.3 0.02 0.06 0.02 80 1003.7
20260504171021 64 168 1.7 2.6 0.02 0.06 0.02 81 1004.0
20260504151033 67 233 1.7 4.3 0.00 0.04 0.00 68 1005.6
20260504141022 69 185 2.6 4.3 0.00 0.04 0.00 67 1005.6
20260504081018 59 0.0 0.0 0.00 0.04 0.00 85 1006.6
20260504045032 58 0.0 0.0 0.04 0.04 0.04 89 1006.5
20260504044029 59 0.0 0.0 0.04 0.04 0.04 86 1006.2
20260504043024 59 0.0 0.0 0.04 0.04 0.04 88 1006.8
20260504042033 62 18 0.9 1.7 0.04 0.04 0.04 82 1007.5
20260504041033 64 167 1.7 2.6 0.04 0.04 0.04 73 1007.3
20260504040024 66 270 0.9 2.6 0.00 0.00 0.00 60 1006.9
20260504035024 66 158 0.0 1.7 0.00 0.00 0.00 59 1007.4
20260504034027 66 135 0.9 2.6 0.00 0.00 0.00 59 1007.4
20260504033025 67 158 0.9 1.7 0.00 0.00 0.00 58 1007.6
20260504032021 67 168 0.9 1.7 0.00 0.00 0.00 58 1007.6
20260504031024 67 0.0 0.0 0.00 0.00 0.00 57 1007.6
20260504030017 68 180 0.0 0.9 0.00 0.00 0.00 56 1007.6
20260504025032 68 158 0.0 1.7 0.00 0.00 0.00 56 1007.6
20260504024028 68 0.0 1.7 0.00 0.00 0.00 56 1007.4
20260504023031 69 180 0.9 2.6 0.00 0.00 0.00 56 1007.5
20260504022033 69 178 0.9 1.7 0.00 0.00 0.00 55 1007.4
20260504021034 69 0.0 0.0 0.00 0.00 0.00 54 1007.3
20260504020031 69 338 0.0 1.7 0.00 0.00 0.00 53 1007.2
20260504015028 70 0.0 0.0 0.00 0.00 0.00 50 1007.0
20260504014025 70 0.0 0.0 0.00 0.00 0.00 50 1006.8
20260504013020 70 180 0.0 1.7 0.00 0.00 0.00 50 1006.7
20260504012018 71 113 0.0 1.7 0.00 0.00 0.00 48 1006.6
20260504011039 71 176 0.9 3.5 0.00 0.00 0.00 48 1006.6
20260504010026 72 232 0.9 2.6 0.00 0.00 0.00 47 1006.6
20260504005023 72 180 0.0 2.6 0.00 0.00 0.00 46 1006.6
20260504004101 73 154 0.9 3.5 0.00 0.00 0.00 46 1006.8
20260504003020 73 124 0.9 3.5 0.00 0.00 0.00 45 1006.9
20260504002034 74 158 0.9 2.6 0.00 0.00 0.00 44 1006.8
20260504001029 75 191 0.9 2.6 0.00 0.00 0.00 43 1006.8
20260504000025 76 113 0.0 1.7 0.00 0.00 0.00 42 1006.8
20260503235021 76 210 0.9 2.6 0.00 0.00 0.00 42 1006.9
20260503234017 76 145 1.7 5.2 0.00 0.00 0.00 43 1007.0
20260503233032 76 167 1.7 3.5 0.00 0.00 0.00 42 1006.9
20260503232029 77 293 3.5 7.8 0.00 0.00 0.00 40 1007.2
20260503231031 78 267 3.5 6.1 0.00 0.00 0.00 39 1007.3
20260503230030 78 231 2.6 5.2 0.00 0.00 0.00 38 1007.4
20260503225021 79 268 3.5 6.1 0.00 0.00 0.00 38 1007.6
20260503224018 79 269 3.5 6.1 0.00 0.00 0.00 38 1007.6
20260503223046 79 226 4.3 7.8 0.00 0.00 0.00 38 1007.6
20260503222022 78 227 3.5 5.2 0.00 0.00 0.00 38 1007.6
20260503221018 78 280 3.5 6.1 0.00 0.00 0.00 37 1007.6
20260503220020 78 259 6.1 11.3 0.00 0.00 0.00 36 1007.7
20260503215035 78 258 4.3 10.4 0.00 0.00 0.00 37 1007.9
20260503214031 78 221 2.6 4.3 0.00 0.00 0.00 38 1008.2
20260503213026 78 220 6.1 10.4 0.00 0.00 0.00 37 1008.3
20260503212029 77 221 3.5 7.0 0.00 0.00 0.00 39 1008.2
20260503211021 77 199 4.3 8.7 0.00 0.00 0.00 40 1008.2
20260503210018 76 181 4.3 6.1 0.00 0.00 0.00 39 1008.4
20260503205111 75 188 5.2 8.7 0.00 0.00 0.00 39 1008.5